Concord, NH

2:23 AM EDT on September 23, 2017 (GMT -0400)
Concord Municipal

Weather History for KCON - October, 2010

Change the Weather History Date:

Thursday, October 7, 2010

  Actual Average Record
Temperature  
Mean Temperature 56 °F 51 °F  
Max Temperature 64 °F 64 °F 90 °F (1963)
Min Temperature 47 °F 39 °F 21 °F (1965)
Degree Days  
Heating Degree Days 9 14  
Month to date heating degree days 70 90  
Since 1 July heating degree days 224 325  
Cooling Degree Days 0 0  
Month to date cooling degree days 1 0  
Year to date cooling degree days 679 450  
Growing Degree Days 6 (Base 50)    
Moisture  
Dew Point 46 °F    
Average Humidity 73    
Maximum Humidity 100    
Minimum Humidity 46    
Precipitation  
Precipitation 0.07 in 0.13 in 1.42 in (1962)
Month to date precipitation 2.23 0.91  
Year to date precipitation 27.30 30.56  
Snow  
Snow 0.00 in 0.00 in 0.20 in (1911)
Month to date snowfall 0.0 0.0  
Since 1 July snowfall 0.0 0.0  
Since 1 September snowfall 0.0 0.0  
Snow Depth 0.00 in    
Sea Level Pressure  
Sea Level Pressure 29.52 in    
Wind  
Wind Speed 8 mph (WSW)    
Max Wind Speed 24 mph    
Max Gust Speed 35 mph    
Visibility 9 miles    
Events Rain    
T = Trace of Precipitation, MM = Missing Value Source: NWS Daily Summary

Daily Weather History Graph

Daily Weather History Graph

Search for Another Location

Airport or City:

Trip Planner

Search our weather history database for the weather conditions in past years. The results will help you decide how hot, cold, wet, or windy it might be!

Date:

Astronomy

Oct. 07, 2010 Rise Set
Actual Time 6:50 AM EDT 6:16 PM EDT
Civil Twilight 6:21 AM EDT 6:45 PM EDT
Nautical Twilight 5:48 AM EDT 7:18 PM EDT
Astronomical Twilight 5:15 AM EDT 7:51 PM EDT
Moon 6:39 AM EDT (10/7) 5:49 PM EDT (10/7)
Length of Visible Light 12h 23m
Length of Day
11h 26m
Waning Crescent, 0% of the Moon is Illuminated
Oct 7
Waning Crescent
Oct 7
New
Oct 14
First Quarter
Oct 22
Full
Oct 30
Last Quarter

Hourly Weather History & Observations

Time (EDT) Temp. Dew Point Humidity Pressure Visibility Wind Dir Wind Speed Gust Speed Precip Events Conditions
12:51 AM 50.0 °F 50.0 °F 100% 29.58 in 4.0 mi SSW 4.6 mph - 0.02 in Rain Light Rain
1:11 AM 50.0 °F 48.2 °F 94% 29.57 in 10.0 mi SW 3.5 mph - 0.01 in   Overcast
1:42 AM 50.0 °F 48.2 °F 94% 29.56 in 2.5 mi West 3.5 mph - 0.01 in Rain Light Rain
1:49 AM 50.0 °F 48.2 °F 94% 29.56 in 4.0 mi WSW 4.6 mph - 0.01 in Rain Light Rain
1:51 AM 50.0 °F 48.9 °F 96% 29.57 in 4.0 mi West 3.5 mph - 0.02 in   Overcast
2:01 AM 50.0 °F 48.2 °F 94% 29.56 in 3.0 mi West 3.5 mph - 0.00 in Rain Light Rain
2:51 AM 50.0 °F 48.9 °F 96% 29.55 in 3.0 mi WSW 3.5 mph - 0.01 in Rain Light Rain
3:51 AM 50.0 °F 48.9 °F 96% 29.52 in 9.0 mi SSW 4.6 mph - 0.03 in Rain Light Rain
4:01 AM 50.0 °F 48.2 °F 94% 29.52 in 10.0 mi SSW 4.6 mph - 0.00 in Rain Light Rain
4:51 AM 50.0 °F 48.9 °F 96% 29.50 in 10.0 mi SW 4.6 mph - 0.00 in Rain Light Rain
5:46 AM 48.2 °F 48.2 °F 100% 29.48 in 10.0 mi SW 4.6 mph - 0.01 in Rain Light Rain
5:51 AM 48.9 °F 48.0 °F 97% 29.48 in 10.0 mi SW 4.6 mph - 0.01 in Rain Light Rain
6:51 AM 48.0 °F 46.9 °F 96% 29.46 in 10.0 mi WSW 3.5 mph - 0.00 in   Partly Cloudy
7:51 AM 48.9 °F 48.0 °F 97% 29.47 in 10.0 mi South 4.6 mph - N/A   Overcast
8:21 AM 48.2 °F 48.2 °F 100% 29.46 in 10.0 mi SSW 3.5 mph - N/A   Overcast
8:51 AM 50.0 °F 48.0 °F 93% 29.47 in 10.0 mi SSW 3.5 mph - N/A   Overcast
9:25 AM 51.8 °F 48.2 °F 88% 29.47 in 10.0 mi SW 5.8 mph - N/A   Overcast
9:46 AM 51.8 °F 48.2 °F 88% 29.46 in 10.0 mi SSW 3.5 mph - N/A   Overcast
9:51 AM 52.0 °F 50.0 °F 93% 29.47 in 10.0 mi SW 4.6 mph - N/A   Overcast
10:05 AM 53.6 °F 50.0 °F 88% 29.47 in 10.0 mi SW 4.6 mph - N/A   Overcast
10:27 AM 53.6 °F 50.0 °F 88% 29.46 in 10.0 mi West 4.6 mph - N/A   Overcast
10:51 AM 55.9 °F 48.9 °F 77% 29.47 in 10.0 mi West 8.1 mph - N/A   Overcast
11:08 AM 59.0 °F 50.0 °F 72% 29.45 in 10.0 mi West 12.7 mph 16.1 mph N/A   Mostly Cloudy
11:36 AM 55.4 °F 46.4 °F 72% 29.46 in 10.0 mi West 12.7 mph 18.4 mph N/A   Overcast
11:51 AM 55.9 °F 48.0 °F 75% 29.47 in 10.0 mi WNW 12.7 mph 18.4 mph N/A   Overcast
12:51 PM 57.0 °F 46.9 °F 69% 29.46 in 10.0 mi WNW 10.4 mph - 0.00 in   Overcast
1:51 PM 59.0 °F 46.0 °F 62% 29.47 in 10.0 mi West 13.8 mph 25.3 mph N/A   Mostly Cloudy
2:51 PM 62.1 °F 45.0 °F 53% 29.49 in 10.0 mi West 13.8 mph 28.8 mph N/A   Scattered Clouds
3:51 PM 63.0 °F 42.1 °F 46% 29.51 in 10.0 mi NNW 16.1 mph 26.5 mph N/A   Mostly Cloudy
4:51 PM 61.0 °F 39.0 °F 44% 29.53 in 10.0 mi WNW 17.3 mph 29.9 mph N/A   Clear
5:51 PM 59.0 °F 39.0 °F 48% 29.56 in 10.0 mi WNW 6.9 mph 16.1 mph N/A   Clear
6:51 PM 55.9 °F 39.0 °F 53% 29.58 in 10.0 mi West 5.8 mph - N/A   Clear
7:51 PM 55.9 °F 39.9 °F 55% 29.61 in 10.0 mi West 6.9 mph - N/A   Scattered Clouds
8:51 PM 57.0 °F 39.0 °F 51% 29.64 in 10.0 mi West 10.4 mph - N/A   Scattered Clouds
9:51 PM 55.0 °F 39.0 °F 55% 29.67 in 10.0 mi WNW 10.4 mph - N/A   Clear
10:51 PM 54.0 °F 39.0 °F 57% 29.70 in 10.0 mi WNW 9.2 mph - N/A   Clear
11:51 PM 53.1 °F 39.0 °F 59% 29.71 in 10.0 mi West 6.9 mph - N/A   Clear